TimeMDT,TemperatureF,Dew PointF,Humidity,Sea Level PressureIn,VisibilityMPH,Wind Direction,Wind SpeedMPH,Gust SpeedMPH,PrecipitationIn,Events,Conditions,WindDirDegrees,DateUTC
12:53 AM,61.0,34.0,36,29.73,10.0,WSW,8.1,-,N/A,,Clear,250,2013-09-30 06:53:00
1:53 AM,60.1,34.0,38,29.72,10.0,SW,10.4,-,N/A,,Clear,230,2013-09-30 07:53:00
2:53 AM,60.1,33.1,36,29.70,10.0,West,6.9,-,N/A,,Clear,260,2013-09-30 08:53:00
3:53 AM,55.0,35.1,47,29.71,10.0,WSW,6.9,-,N/A,,Clear,240,2013-09-30 09:53:00
4:53 AM,54.0,33.1,45,29.72,10.0,Calm,Calm,-,N/A,,Clear,0,2013-09-30 10:53:00
5:53 AM,50.0,34.0,54,29.73,10.0,WSW,5.8,-,N/A,,Clear,250,2013-09-30 11:53:00
6:53 AM,48.0,35.1,61,29.73,10.0,Calm,Calm,-,N/A,,Clear,0,2013-09-30 12:53:00
7:53 AM,52.0,35.1,53,29.73,10.0,SSE,5.8,-,N/A,,Clear,150,2013-09-30 13:53:00
8:53 AM,59.0,37.9,46,29.70,10.0,South,3.5,-,N/A,,Clear,190,2013-09-30 14:53:00
9:53 AM,70.0,37.0,30,29.70,10.0,SSW,8.1,-,N/A,,Clear,210,2013-09-30 15:53:00
10:53 AM,72.0,32.0,23,29.68,10.0,SW,19.6,-,N/A,,Clear,230,2013-09-30 16:53:00
11:53 AM,73.0,34.0,24,29.65,10.0,SW,11.5,-,N/A,,Clear,230,2013-09-30 17:53:00
12:53 PM,75.9,35.1,23,29.62,10.0,WSW,15.0,24.2,N/A,,Clear,240,2013-09-30 18:53:00
1:53 PM,78.1,35.1,21,29.61,10.0,West,9.2,-,N/A,,Clear,270,2013-09-30 19:53:00
2:53 PM,78.1,36.0,22,29.57,10.0,WSW,3.5,-,N/A,,Clear,250,2013-09-30 20:53:00
3:53 PM,78.1,37.9,24,29.58,10.0,WNW,9.2,-,N/A,,Clear,290,2013-09-30 21:53:00
4:53 PM,78.1,37.9,24,29.58,10.0,West,13.8,-,N/A,,Clear,270,2013-09-30 22:53:00
5:53 PM,78.1,36.0,22,29.60,10.0,West,12.7,24.2,N/A,,Clear,270,2013-09-30 23:53:00
6:53 PM,73.0,37.9,28,29.63,10.0,NW,3.5,-,N/A,,Clear,320,2013-10-01 00:53:00
7:53 PM,72.0,35.1,26,29.65,10.0,West,13.8,20.7,N/A,,Clear,280,2013-10-01 01:53:00
8:53 PM,60.1,37.9,44,29.70,10.0,NNE,4.6,-,N/A,,Clear,20,2013-10-01 02:53:00
9:53 PM,62.1,37.0,39,29.70,10.0,WNW,8.1,-,N/A,,Clear,290,2013-10-01 03:53:00
10:53 PM,59.0,37.9,46,29.73,10.0,WNW,8.1,-,N/A,,Clear,290,2013-10-01 04:53:00
11:53 PM,54.0,39.9,59,29.77,10.0,NNE,17.3,-,N/A,,Clear,30,2013-10-01 05:53:00